Location: ???????
(55.8860°N, 38.0932°E)
Time: 20:57:36
(UTC+00:00)

NOSS 3-4 (A) - Pass Details

Date: 14 April 2024
Orbit: 806 x 1405 km, 63.4° (Epoch: 20 May)

Event Time Altitude Azimuth Distance (km) Brightness Sun altitude
Exits shadow 00:16:56 25° 230° (SW) 1,675 4.1 -15.8°
Maximum altitude 00:20:27 89° 141° (SE) 900 3.3 -15.5°
Drops below altitude 10° 00:26:48 10° 53° (NE) 2,751 7.3 -14.8°
Sets 00:29:34 0° 53° (NE) 3,793 8.5 -14.6°
